Dati Storici

Data ora Umidita' aria (%) Temperatura aria (°C) Rad globale (W/m²) Gonioanemometro (°) Tacoanemometro (m/s) Pioggia (mm)
30-06-2020 08:10 61.7 % 25.459 -83.583 3.006 0 0
30-06-2020 08:00 62.2 % 25.115 -70.152 2.586 0 0
30-06-2020 07:50 62.9 % 25.131 -71.723 1.619 0 0
30-06-2020 07:40 64.3 % 25.384 -86.155 1.518 0 0
30-06-2020 07:30 65.9 % 24.145 -84.565 2.254 0 0
30-06-2020 07:20 67 % 23.842 -85.802 1.43 0 0
30-06-2020 07:10 67.6 % 23.115 -78.286 3.558 0 0
30-06-2020 07:00 67.6 % 23.32 -83.916 3.354 0 0
30-06-2020 06:50 68.6 % 22.889 -86.003 3.603 0 0
30-06-2020 06:40 69.6 % 22.671 -85.744 3.392 0 0
30-06-2020 06:30 70.4 % 22.411 -86.145 2.907 0 0
30-06-2020 06:20 71.4 % 22.259 -83.442 2.121 0 0
30-06-2020 06:10 72.7 % 22.039 -48.409 1.525 0 0
30-06-2020 06:00 73.6 % 21.988 -66.889 1.884 0 0
30-06-2020 05:50 75.2 % 21.737 22.599 0.663 0 0
30-06-2020 05:40 75.5 % 21.569 23.126 2.497 0 0
30-06-2020 05:30 76.3 % 21.513 -0.184 2.063 0 0
30-06-2020 05:20 76.9 % 21.41 2.886 0.689 0 0
30-06-2020 05:10 77.4 % 21.294 -50.135 0.689 0 0
30-06-2020 05:00 77.7 % 21.203 -55.605 2.059 0 0

I dati sono presentati in modo automatico a scopo informativo. In seguito a verifica i dati possono subire modifiche o essere invalidati e non riportati negli archivi definitivi.